Location: Observatoire
(46.1952°N, 5.3391°E)
Time: 19:42:04
(UTC+02:00)

CAS-4B - Visible Passes

Search period start: 16 April 2024 00:00
Search period end: 26 April 2024 00:00
Orbit: 480 x 498 km, 43.0° (Epoch: 16 April)

Date Brightness Start Highest point End Pass type
(mag) Time Alt. Az. Time Alt. Az. Time Alt. Az.
16 Apr ? 06:17:00 10° SW 06:20:20 28° SSE 06:23:42 10° E visible
17 Apr ? 05:51:29 11° SW 05:54:34 28° SSE 05:57:55 10° E visible
18 Apr ? 05:26:46 18° SSW 05:28:45 28° SSE 05:32:05 10° E visible
19 Apr ? 05:01:57 25° S 05:02:54 28° SSE 05:06:14 10° E visible
20 Apr ? 04:37:05 28° SSE 04:37:05 28° SSE 04:40:19 10° E visible
20 Apr ? 06:11:57 10° WSW 06:15:41 52° S 06:19:26 10° E visible
21 Apr ? 04:12:08 24° SE 04:12:08 24° SE 04:14:22 10° E visible
21 Apr ? 05:46:29 13° WSW 05:49:44 52° S 05:53:29 10° E visible
22 Apr ? 03:47:09 17° ESE 03:47:09 17° ESE 03:48:21 10° E visible
22 Apr ? 05:21:30 22° WSW 05:23:43 52° S 05:27:28 10° E visible
23 Apr ? 03:22:08 11° E 03:22:08 11° E 03:22:18 10° E visible
23 Apr ? 04:56:28 35° SW 04:57:41 52° S 05:01:25 10° E visible
24 Apr ? 04:31:26 51° S 04:31:35 52° S 04:35:19 10° E visible
25 Apr ? 04:06:24 40° SE 04:06:24 40° SE 04:09:11 10° E visible
25 Apr ? 05:40:44 11° W 05:44:15 41° SSW 05:47:52 10° ESE visible
